Showing default

BD-2-G7, 41586

Orbit data source: Space-Track

BD-2-G7, 41586 is a payload satellite owned by CNSA (CN) in GEO that was launched on Sun, 12 Jun 2016 UTC via a CHANG ZHENG 3C launch vehicle from the Xichang Space Center, China (XSC). Payload-class satellites include a variety of spacecraft equipped with specific instruments for various scientific and technological missions. These include communications satellites like Starlink; space stations such as the ISS; scientific satellites like the Hubble; Earth observation satellites from companies like Planet Labs, Umbra, and HawkEye 360; GPS; miniature CubeSats for education and research; and military/defense satellites.

Not visible in the next 10 days
Identifier
41586, 2016-037A
Orbit
GEO
Country
Flag of CNCN / PRC
Related business
Manufacturer
CAST
Mission
Operational Defense Navigation
Bus & Motor
DFH-3B, FY-25
Mass
~3,060 kg wet, 1,700 kg dry
Launch date (UTC)
2016-06-12 (10 years ago)
Launch vehicle
CHANG ZHENG 3C
Launch site
Xichang Space Center, China (XSC)
Object type
Payload
Rocket body
Debris
Shape & HBR
Box + 2 Pan, 9.0 m
Radar Cross Section
13.998 m², Large (>1 m²)

Expand to show TLE details & history
Last TLE update: 21 hours ago

TLE from 21 hours ago
0 BD-2-G7
1 41586U 16037A   26172.55447016 -.00000355  00000-0  00000+0 0  9994
2 41586   1.7320  69.3648 0006521 358.2440 152.2640  1.00274439  6933
Epoch: 2026-06-21T13:18Z
TLE epoch observation values (Epoch: 2026-06-21T13:18:26.221Z)
Latitude
0.8406°
Longitude
110.56949°
Altitude
35,809.618 km
Speed
3.073 km/s
True Right ascension
14h 39m 43s
True Declination
0° 50' 23"
Sunlit
Object was in daylight at epoch
Visualization orbit readout
Latitude
Unknown
Longitude
Unknown
Altitude
Unknown
Speed
Unknown
Apparent Right ascension
Unknown
Apparent Declination
Unknown
Sunlit
N/A
Visualization observer readout
Local Sidereal Time
21:24:38
Azimuth
Unknown
Elevation
Unknown
Doppler factor
Unknown
Orbital elements
Apogee altitude
35,814.416 km
Perigee altitude
35,759.424 km
Semi-major axis
42,165.057 km
Eccentricity
0.00065
Inclination
1.732°
RAAN
69.3648°
Arg. of periapsis
358.244°
True anomaly
152.29875°
Mean anomaly
152.264°
Eccentric anomaly
152.28138°
Mean motion
0.25068 °/min
Orbital period
1,436.11 mins
BSTAR
0
Loading maneuver chart data...
Computing Atmospheric mass density...
Loading historical data...
Loading historical data...
Loading historical data...
Loading historical data...
Loading historical data...
Loading historical data...
Loading historical data...
Other satellites on launch #37 in the year 2016 (2016-06-12 UTC)

Documentation

Showing up to 5 results
|